User: anonymous   Login
Location: Unspecified
(0.0000°N, 0.0000°E)
Time: 09:21:03
(UTC+00:00)
Language:

CAPE 1 - Orbit

View from above orbital plane
View from above orbital plane
View from above satellite
View from above satellite

Ground track
Ground track

The orbit data is extracted from the following two-line orbital elements,

1 31130U 07012P   17086.80673285 +.00000292 +00000-0 +72139-4 0  9998
2 31130 098.0725 038.4010 0097818 093.4999 267.7393 14.56098582527406
Epoch (UTC): 27 March 2017 19:21:41
Eccentricity: 0.0097818
inclination: 98.0725°
perigee height: 636 km
apogee height: 775 km
right ascension of ascending node: 38.4010°
argument of perigee: 93.4999°
revolutions per day: 14.56098582
mean anomaly at epoch: 267.7393°
orbit number at epoch: 52740

The dashed part of the orbit path shows where the satellite is in the earth's shadow,  

DLR